Starlink 11186

operational
NORAD ID: 60070 Int'l Des: 2024-113 Owner: SPXS Country: US Constellation: starlink
LEOCIRCULAR

About Starlink 11186

Description loading...

Live Position

Loading 3D Globe...

Upcoming Passes

Altitude History

Altitude vs Time

uPlot chart will show altitude changes over time

Two-Line Element Set

1 60070U 24113M 26102.02545543 .00006656 00000-0 59751-4 0 9997
2 60070 53.1576 27.1193 0001076 79.9091 280.2048 15.69710286105201
Epoch: Apr 12, 2026 • Age: 29 hours

Current Status

Altitude 362.2 km
Velocity 7.70 km/s
Sub-Earth Point 37.92°N, 127.32°E
Launch Date Jun 19, 2024
Age 1.8 years
Type internet

Technical Details

Classification Payload
Mass 960.00 kg
Dry Mass 910.00 kg
Total Mass 960.00 kg
Length 0.30 m
Diameter 4.10 m
Span 29.00 m
Shape Box + pan
Manufacturer SPXS
Bus Type Starlink V2MD
Phase Status In Orbit
Owner/State SPXS/US

Large Constellations

Loading constellations...